Location: Flensburg
(54.6357°N, 9.5142°E)
Time: 15:54:10
(UTC+01:00)

ISS - Pass Details

Date: 15 November 2017
Orbit: 402 x 407 km, 51.6° (Epoch: 22 November)

Event Time Altitude Azimuth Distance (km) Brightness Sun altitude
Exits shadow 04:55:20 14° 145° (SE) 1,229 -1.1 -25.3°
Drops below altitude 10° 04:55:58 10° 139° (SE) 1,454 -0.6 -25.2°
Sets 04:58:11 0° 128° (SE) 2,311 0.7 -24.9°
